| time (UTC) | temp F | wind direction | speed MPH | gust MPH | rain 1hr in | rain 24hr in | rain mn in | humidity % | barometer mb |
| 20260906031558 | 79 | 0 | 0.0 | 1.0 | 0.00 | 0.35 | 0.35 | 95 | 1013.0 |
| 20260906030055 | 79 | 0 | 0.0 | 0.0 | 0.00 | 0.35 | 0.35 | 95 | 1013.0 |
| 20260906024548 | 79 | 0 | 0.0 | 1.0 | 0.00 | 0.35 | 0.35 | 95 | 1013.0 |
| 20260906023056 | 79 | 0 | 0.0 | 0.0 | 0.00 | 0.35 | 0.35 | 94 | 1012.8 |
| 20260906021557 | 79 | 0 | 0.0 | 2.0 | 0.00 | 0.35 | 0.35 | 94 | 1012.4 |
| 20260906020054 | 80 | 0 | 0.0 | 3.0 | 0.00 | 0.35 | 0.35 | 94 | 1012.3 |
| 20260906014549 | 80 | 288 | 0.0 | 2.0 | 0.00 | 0.35 | 0.35 | 94 | 1012.1 |
| 20260906013057 | 80 | 318 | 0.0 | 4.0 | 0.00 | 0.35 | 0.35 | 94 | 1012.1 |
| 20260906011604 | 80 | 0 | 0.0 | 3.0 | 0.00 | 0.35 | 0.35 | 93 | 1012.1 |
| 20260906010052 | 80 | 0 | 0.0 | 0.0 | 0.00 | 0.35 | 0.35 | 93 | 1012.2 |
| 20260906004555 | 81 | 0 | 0.0 | 3.0 | 0.00 | 0.35 | 0.35 | 92 | 1012.2 |
| 20260906003053 | 81 | 264 | 0.0 | 2.0 | 0.00 | 0.35 | 0.35 | 90 | 1012.2 |
| 20260906001559 | 82 | 257 | 0.0 | 2.0 | 0.00 | 0.35 | 0.35 | 88 | 1012.2 |
| 20260906000049 | 83 | 0 | 0.0 | 3.0 | 0.00 | 0.35 | 0.35 | 86 | 1012.3 |
| 20260905234556 | 83 | 0 | 1.0 | 4.0 | 0.00 | 0.35 | 0.35 | 86 | 1012.1 |
| 20260905233111 | 83 | 0 | 0.0 | 4.0 | 0.00 | 0.35 | 0.35 | 88 | 1012.4 |
| 20260905231555 | 82 | 228 | 0.0 | 5.0 | 0.00 | 0.35 | 0.35 | 91 | 1012.3 |
| 20260905230057 | 82 | 0 | 0.0 | 3.0 | 0.00 | 0.35 | 0.35 | 92 | 1012.2 |
| 20260905224611 | 83 | 0 | 0.0 | 0.0 | 0.00 | 0.35 | 0.35 | 94 | 1012.2 |
| 20260905223055 | 82 | 0 | 0.0 | 0.0 | 0.01 | 0.35 | 0.35 | 94 | 1012.2 |
| 20260905221548 | 82 | 0 | 0.0 | 2.0 | 0.05 | 0.35 | 0.35 | 94 | 1012.2 |
| 20260905220056 | 82 | 0 | 0.0 | 0.0 | 0.35 | 0.35 | 0.35 | 93 | 1012.2 |
| 20260905214552 | 81 | 0 | 0.0 | 1.0 | 0.35 | 0.35 | 0.35 | 93 | 1012.2 |
| 20260905213102 | 81 | 219 | 0.0 | 6.0 | 0.34 | 0.34 | 0.34 | 91 | 1012.4 |
| 20260905211554 | 84 | 345 | 2.0 | 7.0 | 0.29 | 0.29 | 0.29 | 84 | 1012.9 |
| 20260905210055 | 86 | 205 | 2.0 | 9.0 | 0.00 | 0.00 | 0.00 | 77 | 1012.6 |
| 20260905204552 | 86 | 289 | 1.0 | 7.0 | 0.00 | 0.00 | 0.00 | 78 | 1012.5 |
| 20260905203101 | 88 | 226 | 2.0 | 8.0 | 0.00 | 0.00 | 0.00 | 74 | 1012.6 |
| 20260905201607 | 90 | 263 | 1.0 | 5.0 | 0.00 | 0.00 | 0.00 | 65 | 1012.7 |
| 20260905200054 | 90 | 91 | 2.0 | 6.0 | 0.00 | 0.00 | 0.00 | 67 | 1012.6 |
| 20260905194549 | 89 | 243 | 1.0 | 6.0 | 0.00 | 0.01 | 0.00 | 67 | 1012.7 |
| 20260905193057 | 90 | 100 | 1.0 | 8.0 | 0.00 | 0.01 | 0.00 | 66 | 1013.1 |
| 20260905191557 | 91 | 153 | 3.0 | 8.0 | 0.00 | 0.01 | 0.00 | 67 | 1013.3 |
| 20260905190107 | 90 | 0 | 1.0 | 7.0 | 0.00 | 0.01 | 0.00 | 68 | 1013.4 |
| 20260905184616 | 89 | 35 | 3.0 | 9.0 | 0.00 | 0.05 | 0.00 | 70 | 1013.7 |
| 20260905183058 | 89 | 216 | 2.0 | 8.0 | 0.00 | 0.05 | 0.00 | 72 | 1013.9 |
| 20260905181553 | 89 | 111 | 4.0 | 11.0 | 0.00 | 0.05 | 0.00 | 68 | 1014.2 |
| 20260905180054 | 88 | 54 | 2.0 | 8.0 | 0.00 | 0.05 | 0.00 | 72 | 1014.2 |
| 20260905174555 | 88 | 91 | 3.0 | 11.0 | 0.00 | 0.07 | 0.00 | 74 | 1014.5 |
| 20260905173052 | 86 | 51 | 2.0 | 8.0 | 0.00 | 0.07 | 0.00 | 76 | 1014.7 |
| 20260905171555 | 86 | 0 | 2.0 | 7.0 | 0.00 | 0.07 | 0.00 | 77 | 1014.7 |
| 20260905170057 | 86 | 14 | 3.0 | 8.0 | 0.00 | 0.07 | 0.00 | 77 | 1014.7 |
| 20260905164556 | 85 | 115 | 1.0 | 8.0 | 0.00 | 0.17 | 0.00 | 79 | 1014.9 |
| 20260905163101 | 85 | 65 | 3.0 | 8.0 | 0.00 | 0.17 | 0.00 | 81 | 1014.9 |
| 20260905161555 | 84 | 66 | 4.0 | 9.0 | 0.00 | 0.17 | 0.00 | 82 | 1015.1 |
| 20260905160051 | 85 | 359 | 3.0 | 11.0 | 0.00 | 0.17 | 0.00 | 81 | 1015.0 |
| 20260905154559 | 83 | 90 | 3.0 | 11.0 | 0.00 | 0.19 | 0.00 | 85 | 1015.2 |
| 20260905153057 | 84 | 7 | 2.0 | 7.0 | 0.00 | 0.19 | 0.00 | 85 | 1015.2 |
| 20260905151555 | 83 | 345 | 2.0 | 5.0 | 0.00 | 0.19 | 0.00 | 86 | 1015.3 |
| 20260905150049 | 82 | 0 | 0.0 | 6.0 | 0.00 | 0.19 | 0.00 | 88 | 1015.2 |
| 20260905144547 | 82 | 15 | 2.0 | 6.0 | 0.00 | 0.20 | 0.00 | 88 | 1015.1 |
| 20260905143057 | 80 | 322 | 2.0 | 4.0 | 0.00 | 0.20 | 0.00 | 89 | 1015.2 |
| 20260905141608 | 80 | 60 | 0.0 | 2.0 | 0.00 | 0.20 | 0.00 | 91 | 1015.1 |
| 20260905140055 | 78 | 324 | 1.0 | 4.0 | 0.00 | 0.20 | 0.00 | 93 | 1015.2 |
| 20260905134550 | 79 | 18 | 1.0 | 4.0 | 0.00 | 0.20 | 0.00 | 93 | 1015.1 |
| 20260905133055 | 78 | 332 | 1.0 | 3.0 | 0.00 | 0.20 | 0.00 | 94 | 1015.0 |
| 20260905131608 | 77 | 79 | 0.0 | 3.0 | 0.00 | 0.20 | 0.00 | 95 | 1014.9 |
| 20260905130100 | 76 | 51 | 0.0 | 2.0 | 0.00 | 0.20 | 0.00 | 97 | 1014.7 |
| 20260905124556 | 75 | 0 | 0.0 | 2.0 | 0.00 | 0.20 | 0.00 | 98 | 1014.5 |
| 20260905123102 | 74 | 51 | 0.0 | 2.0 | 0.00 | 0.20 | 0.00 | 98 | 1014.4 |
| 20260905121554 | 74 | 0 | 0.0 | 0.0 | 0.00 | 0.20 | 0.00 | 98 | 1014.3 |
| 20260905120053 | 74 | 0 | 0.0 | 1.0 | 0.00 | 0.20 | 0.00 | 98 | 1014.2 |
| 20260905114550 | 73 | 0 | 0.0 | 1.0 | 0.00 | 0.20 | 0.00 | 98 | 1014.3 |
| 20260905113108 | 73 | 0 | 0.0 | 1.0 | 0.00 | 0.20 | 0.00 | 98 | 1014.1 |
| 20260905111558 | 73 | 0 | 0.0 | 1.0 | 0.00 | 0.20 | 0.00 | 98 | 1013.9 |
| 20260905110052 | 73 | 0 | 0.0 | 1.0 | 0.00 | 0.20 | 0.00 | 97 | 1013.9 |
| 20260905104551 | 74 | 0 | 0.0 | 0.0 | 0.00 | 0.20 | 0.00 | 97 | 1014.0 |
| 20260905103048 | 74 | 0 | 0.0 | 2.0 | 0.00 | 0.20 | 0.00 | 97 | 1014.1 |
| 20260905101619 | 74 | 98 | 1.0 | 3.0 | 0.00 | 0.20 | 0.00 | 97 | 1014.1 |
| 20260905100056 | 74 | 0 | 0.0 | 1.0 | 0.00 | 0.20 | 0.00 | 97 | 1013.9 |
| 20260905094549 | 74 | 0 | 0.0 | 2.0 | 0.00 | 0.20 | 0.00 | 97 | 1013.8 |
| 20260905093048 | 74 | 0 | 0.0 | 0.0 | 0.00 | 0.20 | 0.00 | 97 | 1013.8 |
| 20260905091603 | 74 | 0 | 0.0 | 0.0 | 0.00 | 0.20 | 0.00 | 97 | 1013.7 |
| 20260905090053 | 74 | 0 | 0.0 | 0.0 | 0.00 | 0.20 | 0.00 | 97 | 1013.6 |
| 20260905084606 | 74 | 0 | 0.0 | 2.0 | 0.00 | 0.20 | 0.00 | 97 | 1013.4 |
| 20260905083048 | 74 | 0 | 0.0 | 1.0 | 0.00 | 0.20 | 0.00 | 97 | 1013.6 |
| 20260905081556 | 74 | 0 | 0.0 | 0.0 | 0.00 | 0.20 | 0.00 | 97 | 1013.4 |
| 20260905080055 | 74 | 0 | 0.0 | 1.0 | 0.00 | 0.20 | 0.00 | 97 | 1013.4 |
| 20260905074555 | 74 | 0 | 0.0 | 0.0 | 0.00 | 0.20 | 0.00 | 97 | 1013.4 |
| 20260905073048 | 74 | 0 | 0.0 | 0.0 | 0.00 | 0.20 | 0.00 | 97 | 1013.5 |
| 20260905071558 | 74 | 0 | 0.0 | 1.0 | 0.00 | 0.20 | 0.00 | 97 | 1013.5 |
| 20260905070106 | 74 | 92 | 0.0 | 3.0 | 0.00 | 0.20 | 0.00 | 97 | 1013.6 |
| 20260905064552 | 74 | 0 | 0.0 | 2.0 | 0.00 | 0.20 | 0.00 | 97 | 1013.4 |
| 20260905063051 | 75 | 70 | 0.0 | 1.0 | 0.00 | 0.20 | 0.00 | 97 | 1013.3 |
| 20260905061607 | 75 | 0 | 0.0 | 1.0 | 0.00 | 0.20 | 0.00 | 97 | 1013.4 |
| 20260905060051 | 75 | 0 | 0.0 | 1.0 | 0.00 | 0.20 | 0.00 | 97 | 1013.5 |
| 20260905054552 | 75 | 0 | 0.0 | 0.0 | 0.00 | 0.20 | 0.00 | 97 | 1013.5 |
| 20260905053105 | 75 | 0 | 0.0 | 1.0 | 0.00 | 0.20 | 0.00 | 97 | 1013.6 |
| 20260905051550 | 75 | 0 | 0.0 | 1.0 | 0.00 | 0.20 | 0.00 | 97 | 1013.7 |
| 20260905050047 | 75 | 0 | 0.0 | 1.0 | 0.00 | 0.20 | 0.00 | 97 | 1013.8 |
| 20260905044553 | 75 | 0 | 0.0 | 0.0 | 0.00 | 0.20 | 0.20 | 97 | 1013.8 |
| 20260905043056 | 75 | 0 | 0.0 | 1.0 | 0.00 | 0.20 | 0.20 | 97 | 1013.9 |
| 20260905041551 | 75 | 0 | 0.0 | 1.0 | 0.00 | 0.20 | 0.20 | 97 | 1014.2 |
| 20260905040056 | 75 | 0 | 0.0 | 1.0 | 0.00 | 0.20 | 0.20 | 96 | 1014.2 |
| 20260905034553 | 76 | 0 | 0.0 | 1.0 | 0.00 | 0.20 | 0.20 | 96 | 1014.3 |
| 20260905033051 | 76 | 0 | 0.0 | 1.0 | 0.00 | 0.20 | 0.20 | 96 | 1014.5 |